[[{"header":{"parameterUnit":"m.s-1","parameterCategory":1,"la1":30.2991,"la2":30.254,"lo1":-89.0895,"lo2":-89.0444,"dy":0.0017,"dx":0.0017,"nx":28,"ny":28,"refTime":"2023-08-09T03:00:00:Z","depth":0,"parameterNumber":2,"parameterNumberName":"U-component_of_WINDS"},"data":[0,0,0,0,0,0,0,0,0,0,0,0,0,0,0,0,0,0,0,0,0,0,0,0,0,0,0,0,0,0,0,0,0,0,0,0,0,0,0,0,0,0,0,0,0,0,0,0,0,0,0,0,0,0,0,0,0,0,3.2554,3.2554,0,3.2546,3.2546,3.2546,3.2459,3.2456,3.2454,3.2452,3.2445,3.2447,3.2448,0,0,0,0,0,0,0,0,0,0,0,0,0,3.2493,3.2494,3.2554,3.2554,3.2554,3.2546,3.2546,3.2546,3.2459,3.2456,3.2454,3.2451,3.2444,3.2446,3.2449,0,0,0,0,0,0,0,0,0,0,0,0,0,3.2506,3.2495,3.2554,3.2509,3.2505,3.2546,3.2546,3.2546,3.246,3.2456,3.2453,3.245,3.2443,3.2446,3.2449,3.2532,0,0,3.2457,3.2459,0,0,0,0,0,0,0,0,3.2505,3.2508,3.2516,3.2513,3.2508,3.25,3.2522,3.2541,3.246,3.2477,3.2452,3.2448,3.2466,3.2467,3.2472,3.2532,3.2531,3.2458,3.2459,3.246,3.2461,0,0,0,0,0,0,0,3.2504,3.2508,3.2551,3.2516,3.2511,3.249,3.2488,3.2525,3.249,3.2475,3.2469,3.2469,3.2463,3.247,3.2472,3.2531,3.2458,3.246,3.2462,3.2463,3.2654,3.2657,0,0,0,0,0,0,3.251,3.2508,3.2551,3.2551,3.2498,3.2493,3.2491,3.2506,3.2489,3.2484,3.2472,3.2465,3.2467,3.2468,3.2471,3.2564,3.246,3.2463,3.2465,3.2651,3.2655,3.2659,0,0,0,0,0,0,3.2509,3.2514,3.2551,3.2527,3.253,3.2498,3.2515,3.2508,3.2514,3.2487,3.248,3.2485,3.2464,3.2467,3.2516,3.2562,3.2464,3.2467,3.2647,3.2652,3.2657,3.2752,0,0,0,0,0,0,3.2507,3.2514,3.2546,3.2529,3.2532,3.2598,3.2518,3.251,3.2519,3.251,3.2498,3.2492,3.2462,3.2513,3.2519,3.2564,3.2469,3.2642,3.2649,3.2655,3.2745,3.276,3.2773,0,0,0,0,0,3.2505,3.2574,3.2548,3.2554,3.2571,3.2601,3.2602,3.2566,3.2523,3.2554,3.2536,3.2493,3.2557,3.2519,3.2525,3.2572,3.2639,3.2647,3.2655,3.2739,3.2757,3.2773,0,0,0,0,0,0,3.2599,3.2571,3.2542,3.2607,3.2607,3.2586,3.2624,3.2587,3.2599,3.259,3.2544,3.2542,3.2598,3.259,3.2548,3.265,3.259,3.26,3.2652,3.2669,3.2683,3.2683,3.2471,0,0,0,0,0,3.2627,3.2653,3.2628,3.2688,3.2689,3.2657,3.2669,3.264,3.2638,3.2637,3.2623,3.2622,3.2641,3.2656,3.2673,3.2744,3.2739,3.2779,3.2794,3.2805,3.2813,3.2847,3.2864,3.2684,3.2684,3.2684,0,0,3.2686,3.2674,3.2693,3.2707,3.2703,3.273,3.2657,3.269,3.2709,3.2642,3.2686,3.2677,3.2673,3.2733,3.2759,3.2728,3.2862,3.2815,3.2825,3.2826,3.2857,3.2874,3.2889,3.2689,3.2688,3.2687,0,0,3.2805,3.28,3.2848,3.2845,3.284,3.2817,3.2829,3.2813,3.2803,3.2847,3.2796,3.2819,3.2855,3.2853,3.2857,3.2974,3.2933,3.2981,3.3054,3.3088,3.3102,3.3114,3.3153,3.3168,3.299,3.299,3.299,0,3.2878,3.2917,3.2877,3.2912,3.2918,3.2858,3.2905,3.2905,3.2906,3.2911,3.2877,3.2918,3.2912,3.2969,3.2997,3.3004,3.3014,3.2981,3.3103,3.3115,3.3126,3.3162,3.3177,3.2995,3.2995,3.2994,3.2994,0,3.3006,3.3034,3.3073,3.3073,3.3085,3.3126,3.3091,3.3107,3.3078,3.3059,3.3103,3.3093,3.3105,3.3117,3.309,3.317,3.3151,3.3111,3.305,3.3149,3.3182,3.3196,3.3003,3.3001,3.3,3.2998,0,0,3.3184,3.316,3.3175,3.3173,3.3162,3.3182,3.322,3.3231,3.3244,3.3247,3.3276,3.3307,3.3269,3.3274,3.3245,3.3276,3.3365,3.3231,3.3231,3.3254,3.3449,3.3477,3.3494,3.3339,3.3342,3.3344,3.3448,0,3.3296,3.3358,3.3322,3.3389,3.3412,3.3355,3.3388,3.3384,3.3367,3.3385,3.3366,3.3387,3.3338,3.334,3.3367,3.3348,3.3403,3.3341,3.3364,3.3365,3.3363,3.3511,3.3541,3.364,3.3461,3.3464,3.3465,0,3.3435,3.3441,3.351,3.3492,3.35,3.353,3.3536,3.3554,3.3548,3.3534,3.3538,3.3502,3.3537,3.3479,3.3524,3.3483,3.349,3.3483,3.3486,3.3484,3.3419,3.3511,3.3671,3.3685,3.3486,3.3484,3.3483,0,3.3553,3.358,3.3623,3.3624,3.3605,3.3626,3.3619,3.361,3.3618,3.3624,3.3628,3.3639,3.3644,3.3652,3.3619,3.358,3.3668,3.3608,3.3656,3.3656,3.3674,3.3673,3.3835,3.3685,3.3685,3.3685,3.3684,0,3.368,3.3724,3.3675,3.3702,3.3748,3.3707,3.3754,3.3741,3.3733,3.3756,3.3708,3.373,3.3687,3.3704,3.3679,3.3719,3.3723,3.3711,3.3703,3.3713,3.3714,3.3715,3.3706,3.3688,3.3688,3.3687,3.3686,0,3.3819,3.3788,3.3831,3.3809,3.3804,3.3839,3.382,3.3843,3.3823,3.3852,3.3856,3.3825,3.3843,3.3811,3.3826,3.3809,3.3864,3.3847,3.3865,3.3859,3.3907,3.3901,3.4073,3.4092,3.3933,3.3934,3.3935,0,3.39,3.3932,3.3912,3.3923,3.3918,3.3938,3.3945,3.3905,3.3915,3.3909,3.3933,3.3947,3.3955,3.3987,3.3965,3.3975,3.3956,3.4016,3.3957,3.3966,3.3953,3.395,3.3952,3.4027,3.4029,3.403,3.4032,0,3.4047,3.4029,3.4041,3.4048,3.4058,3.4061,3.4061,3.4073,3.4031,3.4044,3.4061,3.4068,3.4082,3.4095,3.41,3.4093,3.4055,3.405,3.4061,3.407,3.4078,3.4071,3.3894,3.4046,3.4044,3.4043,3.4043,3.4042,3.4156,3.4181,3.417,3.4184,3.418,3.418,3.42,3.4182,3.4195,3.4202,3.4178,3.42,3.4192,3.4194,3.4191,3.4207,3.4181,3.4198,3.4201,3.4205,3.4211,3.4078,3.4209,3.4208,3.4208,3.4207,3.4207,0,3.4297,3.4287,3.4301,3.4301,3.4312,3.4276,3.4273,3.4285,3.4304,3.43,3.4309,3.4327,3.434,3.4319,3.4328,3.4345,3.4327,3.4348,3.4345,3.4343,3.4236,3.4224,3.4362,3.4362,3.4362,3.4362,3.4362,3.4362,3.4371,3.4409,3.4391,3.4425,3.4415,3.4435,3.4436,3.4436,3.4432,3.4454,3.4464,3.445,3.4438,3.4446,3.4455,3.4449,3.4453,3.4479,3.4467,3.4366,3.4351,3.4336,3.4325,3.4481,3.4482,3.4572,3.4572,3.4573]},{"header":{"parameterUnit":"m.s-1","parameterCategory":1,"la1":30.2991,"la2":30.254,"lo1":-89.0895,"lo2":-89.0444,"dy":0.0017,"dx":0.0017,"nx":28,"ny":28,"refTime":"2023-08-09T03:00:00:Z","depth":0,"parameterNumber":3,"parameterNumberName":"V-component_of_WINDS"},"data":[0,0,0,0,0,0,0,0,0,0,0,0,0,0,0,0,0,0,0,0,0,0,0,0,0,0,0,0,0,0,0,0,0,0,0,0,0,0,0,0,0,0,0,0,0,0,0,0,0,0,0,0,0,0,0,0,0,0,6.486,6.486,0,6.4903,6.4903,6.4904,6.4853,6.4851,6.4849,6.4847,6.4886,6.4889,6.4892,0,0,0,0,0,0,0,0,0,0,0,0,0,6.4729,6.4731,6.486,6.486,6.4861,6.4902,6.4903,6.4904,6.4853,6.4851,6.4848,6.4846,6.4885,6.4889,6.4892,0,0,0,0,0,0,0,0,0,0,0,0,0,6.478,6.4732,6.486,6.4841,6.484,6.4902,6.4903,6.4904,6.4853,6.485,6.4848,6.4845,6.4884,6.4888,6.4892,6.4975,0,0,6.4905,6.4907,0,0,0,0,0,0,0,0,6.4777,6.4785,6.4843,6.4842,6.4841,6.4869,6.4871,6.4927,6.4854,6.4848,6.4847,6.4844,6.4883,6.4887,6.4901,6.4976,6.4978,6.4906,6.4908,6.491,6.4911,0,0,0,0,0,0,0,6.4774,6.4783,6.4877,6.4844,6.4843,6.4828,6.4832,6.4882,6.488,6.4848,6.4845,6.4851,6.4881,6.4897,6.4901,6.4979,6.4905,6.4909,6.4912,6.4913,6.5121,6.5124,0,0,0,0,0,0,6.4773,6.478,6.4875,6.4878,6.4802,6.4833,6.4837,6.4863,6.488,6.488,6.4853,6.4848,6.4891,6.4896,6.4902,6.4997,6.491,6.4914,6.4916,6.5118,6.5121,6.5125,0,0,0,0,0,0,6.477,6.4782,6.4874,6.4828,6.4839,6.4838,6.4867,6.4865,6.4881,6.4883,6.4882,6.4869,6.4889,6.4897,6.4957,6.4998,6.4916,6.4919,6.5114,6.5119,6.5123,6.5189,0,0,0,0,0,0,6.4767,6.4781,6.4814,6.4829,6.4841,6.4929,6.487,6.4868,6.4889,6.4883,6.4898,6.4898,6.4887,6.4951,6.4961,6.5002,6.4923,6.511,6.5116,6.5122,6.5184,6.5196,6.5206,0,0,0,0,0,6.4762,6.4831,6.4816,6.4828,6.4883,6.4932,6.4938,6.4925,6.4892,6.4924,6.4925,6.4898,6.4993,6.4957,6.4968,6.5012,6.5108,6.5115,6.5121,6.5178,6.5193,6.5206,0,0,0,0,0,0,6.4819,6.4833,6.4816,6.4892,6.4911,6.4923,6.4962,6.4942,6.497,6.4963,6.4945,6.4949,6.5012,6.5018,6.4979,6.5091,6.5044,6.5054,6.5084,6.5098,6.5109,6.5105,6.4926,0,0,0,0,0,6.4841,6.4882,6.489,6.4956,6.4967,6.4963,6.4984,6.4973,6.4991,6.4998,6.5004,6.5022,6.5055,6.5077,6.5108,6.5185,6.5186,6.522,6.5231,6.5241,6.5248,6.5286,6.53,6.5147,6.5147,6.5147,0,0,6.4886,6.4898,6.4924,6.4968,6.4981,6.5021,6.497,6.5015,6.5044,6.5005,6.5061,6.5066,6.5085,6.5152,6.5183,6.5159,6.5291,6.5249,6.5256,6.5259,6.5294,6.5309,6.5322,6.5151,6.515,6.515,0,0,6.4987,6.5002,6.5057,6.5071,6.5093,6.509,6.5103,6.5118,6.5119,6.5177,6.5147,6.518,6.5239,6.5252,6.5267,6.5372,6.5346,6.5383,6.544,6.5478,6.549,6.55,6.5535,6.5548,6.539,6.5391,6.5391,0,6.5039,6.51,6.5087,6.5134,6.5153,6.5121,6.5174,6.5189,6.5219,6.5231,6.5205,6.5277,6.5287,6.5356,6.5382,6.5396,6.5408,6.538,6.5489,6.55,6.5509,6.5542,6.5556,6.5395,6.5394,6.5394,6.5393,0,6.5162,6.5204,6.5246,6.5276,6.53,6.535,6.5343,6.5368,6.5354,6.5353,6.541,6.5421,6.5453,6.5469,6.5456,6.5536,6.552,6.5493,6.5445,6.5528,6.5558,6.5571,6.54,6.5399,6.5398,6.5397,0,0,6.5299,6.5322,6.5337,6.5349,6.5369,6.5401,6.5449,6.5481,6.5501,6.5523,6.556,6.561,6.5584,6.5601,6.5589,6.5622,6.5701,6.5589,6.5589,6.5607,6.5786,6.5805,6.582,6.5685,6.5688,6.5689,6.5783,0,6.5398,6.5482,6.5472,6.5551,6.5588,6.5557,6.5598,6.5614,6.5615,6.5645,6.5645,6.5679,6.5644,6.5653,6.5685,6.5685,6.5736,6.5678,6.5717,6.5719,6.5711,6.5836,6.5856,6.5944,6.5795,6.5797,6.5799,0,6.5525,6.5552,6.5635,6.5648,6.5663,6.57,6.5727,6.5757,6.5774,6.5771,6.579,6.5772,6.5817,6.5771,6.5831,6.5792,6.5808,6.581,6.5813,6.5814,6.5762,6.5837,6.5972,6.5984,6.5818,6.5816,6.5815,0,6.5613,6.567,6.5726,6.5738,6.5755,6.5782,6.579,6.5804,6.5823,6.5846,6.5858,6.5886,6.5901,6.5922,6.5911,6.5879,6.5973,6.5927,6.597,6.597,6.5989,6.5988,6.6126,6.6004,6.6004,6.6004,6.6003,0,6.5724,6.5775,6.5766,6.58,6.5856,6.5843,6.5898,6.5902,6.5914,6.5947,6.5923,6.5954,6.5939,6.5969,6.5961,6.601,6.6018,6.6015,6.6012,6.6016,6.6016,6.6024,6.6017,6.6007,6.6006,6.6006,6.6005,0,6.5831,6.5827,6.5886,6.5897,6.5901,6.5942,6.595,6.5981,6.598,6.6022,6.6031,6.6028,6.6061,6.6053,6.609,6.6084,6.6146,6.6136,6.614,6.6137,6.618,6.6175,6.6325,6.6343,6.6213,6.6214,6.6215,0,6.59,6.5939,6.5954,6.5975,6.5985,6.6019,6.6038,6.6026,6.6047,6.6068,6.6096,6.6127,6.6152,6.6206,6.6206,6.6233,6.6222,6.6273,6.6226,6.6228,6.6219,6.6216,6.6219,6.6282,6.6283,6.6284,6.6285,0,6.6022,6.6018,6.6048,6.6076,6.61,6.6122,6.6141,6.6159,6.6148,6.6172,6.6206,6.6225,6.6263,6.6293,6.6318,6.6324,6.6302,6.6301,6.6312,6.6315,6.6314,6.6312,6.6163,6.6297,6.6296,6.6295,6.6294,6.6294,6.611,6.6142,6.6158,6.6191,6.6204,6.6222,6.6251,6.6253,6.6282,6.6311,6.6302,6.6341,6.6354,6.6385,6.6395,6.6423,6.6404,6.642,6.6424,6.6427,6.6431,6.6312,6.6428,6.6428,6.6427,6.6427,6.6427,0,6.6229,6.6237,6.6268,6.6295,6.632,6.63,6.6319,6.6341,6.6375,6.639,6.6415,6.6453,6.6482,6.6485,6.6511,6.6534,6.6524,6.6541,6.6537,6.6539,6.6449,6.6435,6.6548,6.6548,6.6548,6.6548,6.6548,6.6548,6.6293,6.6345,6.6343,6.64,6.6407,6.6445,6.6458,6.6474,6.6485,6.6529,6.6554,6.6555,6.6565,6.6592,6.6617,6.6617,6.6626,6.6647,6.6642,6.6558,6.6545,6.6534,6.6521,6.665,6.665,6.6729,6.673,6.6731]}]]